Flag for Cayman Islands Weather past 2 weeks in George Town, Cayman Islands

Now
81 °F

Warm.


Feels Like: 85 °F
Forecast: 81 / 85 °F
Wind: 9 mph from Northeast

Location: Cayo Largo Del Sur

Current Time: Sep 17, 2014 at 2:58:12 AM

Latest Report: Sep 17, 2014 at 2:05 AM


Visibility: N/A

Pressure: 29.95 "Hg

Humidity: 74%

Dew point: 72 °F

Location of George TownLocation

Historic Weather in George Town — Graph

°F

George Town temperature yesterday

Maximum temperature yesterday: 88 °F (at 11:51 AM)
Minimum temperature yesterday: 81 °F (at 10:05 PM)
Average temperature yesterday: 84 °F

Past Weeks' High & Low Weather Summary

 TemperatureHumidityPressure
High90 °F (Sep 4, 12:51 PM)89% (Sep 9, 3:05 AM)30.09 "Hg (Sep 9, 3:05 AM)
Low72 °F (Sep 5, 11:05 PM)55% (Sep 5, 12:52 PM)29.86 "Hg (Sep 6, 4:52 PM)
Average83 °F72%29.97 "Hg
* Reported Sep 2 1:05 AM — Sep 17 1:05 AM, George Town, Weather by CustomWeather, © 2014

Note: Actual official high and low records may vary slightly from our data, if they occured in-between our weather recording intervals... More about our weather records

Advertising

George Town weather history for previous 24 hours

 ConditionsComfort  
Time TempWeatherWind HumidityBarometerVisibility
1:05 AM
Sep 17
81 °FWarm.9 mph74%29.95 "HgN/A
12:05 AM81 °FWarm.9 mph70%29.98 "HgN/A
11:05 PM
Sep 16
81 °FWarm.9 mph70%29.98 "HgN/A
10:05 PM81 °FWarm.9 mph70%30.01 "HgN/A
9:05 PM82 °FWarm.9 mph74%30.01 "HgN/A
8:05 PM82 °FWarm.9 mph70%30.01 "HgN/A
7:05 PM82 °FWarm.9 mph74%29.98 "HgN/A
5:51 PM84 °FScattered clouds.9 mph66%29.95 "Hg6 mi
4:53 PM84 °FScattered clouds.9 mph66%29.95 "Hg6 mi
3:53 PM86 °FPassing clouds.9 mph62%29.92 "HgN/A
2:51 PM88 °FPassing clouds.9 mph55%29.95 "HgN/A
1:51 PM88 °FPassing clouds.9 mph62%29.98 "HgN/A
12:51 PM86 °FPassing clouds.9 mph70%29.98 "HgN/A
11:51 AM88 °FPassing clouds.9 mph66%30.01 "HgN/A
10:51 AM86 °FPassing clouds.9 mph70%30.04 "HgN/A
9:51 AM86 °FPassing clouds.9 mph70%30.04 "HgN/A
8:51 AM84 °FPassing clouds.10 mph70%30.04 "HgN/A
7:51 AM84 °FPassing clouds.9 mph70%30.04 "HgN/A
6:51 AM82 °FPassing clouds.10 mph79%30.04 "Hg6 mi
5:51 AM82 °FPassing clouds.12 mph79%30.01 "Hg6 mi
5:05 AM82 °FWarm.10 mph79%30.01 "HgN/A
4:05 AM82 °FWarm.12 mph79%30.01 "HgN/A
3:05 AM82 °FWarm.12 mph79%30.01 "HgN/A
2:05 AM82 °FWarm.13 mph79%30.01 "HgN/A
Weather by CustomWeather, © 2014

See weather overviewHow to use our weather pages